TimeCDT,TemperatureF,Dew PointF,Humidity,Sea Level PressureIn,VisibilityMPH,Wind Direction,Wind SpeedMPH,Gust SpeedMPH,PrecipitationIn,Events,Conditions,WindDirDegrees,DateUTC
12:10 AM,64.0,61.0,90,29.99,7.0,ENE,6.9,-,0.00,Rain-Thunderstorm,Light Thunderstorms and Rain,60,2013-06-05 05:10:00
12:40 AM,64.0,61.0,90,30.01,7.0,North,8.1,-,0.00,Thunderstorm,Thunderstorm,350,2013-06-05 05:40:00
12:54 AM,64.0,61.0,90,29.99,9.0,East,9.2,-,0.00,Thunderstorm,Thunderstorm,100,2013-06-05 05:54:00
1:06 AM,64.0,60.1,87,30.01,10.0,East,6.9,-,N/A,Thunderstorm,Thunderstorm,90,2013-06-05 06:06:00
1:27 AM,64.0,61.0,90,30.00,9.0,ENE,4.6,-,N/A,,Overcast,70,2013-06-05 06:27:00
1:44 AM,64.0,61.0,90,29.98,9.0,East,5.8,-,N/A,,Overcast,90,2013-06-05 06:44:00
1:54 AM,64.0,60.1,87,29.96,9.0,East,6.9,-,N/A,,Overcast,100,2013-06-05 06:54:00
2:54 AM,64.0,60.1,87,29.98,9.0,SE,4.6,-,N/A,,Overcast,140,2013-06-05 07:54:00
3:54 AM,63.0,60.1,90,29.96,8.0,SE,5.8,-,N/A,,Overcast,140,2013-06-05 08:54:00
4:54 AM,63.0,60.1,90,29.96,7.0,SSE,3.5,-,N/A,,Overcast,160,2013-06-05 09:54:00
5:32 AM,63.0,60.1,90,29.97,6.0,South,6.9,-,N/A,Thunderstorm,Mostly Cloudy,170,2013-06-05 10:32:00
5:54 AM,63.0,60.1,90,29.95,7.0,South,5.8,-,N/A,Thunderstorm,Thunderstorm,170,2013-06-05 10:54:00
6:06 AM,63.0,60.1,90,29.96,7.0,NNW,3.5,-,0.00,Rain-Thunderstorm,Thunderstorms and Rain,330,2013-06-05 11:06:00
6:15 AM,64.0,60.1,87,29.96,7.0,North,4.6,-,0.00,Thunderstorm,Thunderstorm,360,2013-06-05 11:15:00
6:30 AM,64.0,60.1,87,29.97,7.0,Calm,Calm,-,0.00,Rain,Light Rain,0,2013-06-05 11:30:00
6:54 AM,63.0,60.1,90,29.96,4.0,ESE,6.9,-,0.02,Rain,Light Rain,110,2013-06-05 11:54:00
7:01 AM,63.0,61.0,93,29.98,2.5,SE,5.8,-,0.01,Rain,Light Rain,130,2013-06-05 12:01:00
7:11 AM,63.0,61.0,93,29.96,2.5,ESE,4.6,-,0.04,Rain,Light Rain,110,2013-06-05 12:11:00
7:32 AM,63.0,61.0,93,29.95,2.5,Calm,Calm,-,0.05,Rain,Light Rain,0,2013-06-05 12:32:00
7:54 AM,64.0,62.1,93,29.94,2.5,Calm,Calm,-,0.05,,Overcast,0,2013-06-05 12:54:00
8:36 AM,64.9,61.0,87,29.96,2.5,Calm,Calm,-,N/A,,Overcast,0,2013-06-05 13:36:00
8:54 AM,64.0,61.0,90,29.96,2.5,Calm,Calm,-,N/A,,Overcast,0,2013-06-05 13:54:00
9:37 AM,64.0,62.1,93,29.98,2.5,NNW,8.1,-,N/A,,Overcast,330,2013-06-05 14:37:00
9:54 AM,64.0,61.0,90,29.97,2.5,NNW,9.2,-,0.00,,Light Drizzle,340,2013-06-05 14:54:00
10:30 AM,64.0,60.1,87,29.99,8.0,NNW,11.5,-,0.00,,Overcast,330,2013-06-05 15:30:00
10:54 AM,64.0,59.0,84,29.98,9.0,NNW,10.4,-,0.00,,Overcast,340,2013-06-05 15:54:00
11:39 AM,64.9,60.1,84,29.99,8.0,NNW,10.4,-,N/A,,Overcast,340,2013-06-05 16:39:00
11:51 AM,64.4,59.0,83,29.99,9.0,NNW,6.9,-,N/A,,Overcast,340,2013-06-05 16:51:00
11:54 AM,64.9,60.1,84,29.98,9.0,NNW,8.1,-,N/A,,Overcast,340,2013-06-05 16:54:00
12:16 PM,64.9,60.1,84,29.99,9.0,NNW,5.8,-,N/A,,Overcast,330,2013-06-05 17:16:00
12:54 PM,66.9,60.1,79,29.98,10.0,NNW,8.1,-,0.00,Rain,Light Rain,340,2013-06-05 17:54:00
1:18 PM,66.0,59.0,78,29.99,10.0,NW,10.4,-,0.00,,Overcast,320,2013-06-05 18:18:00
1:54 PM,64.9,57.9,78,29.98,10.0,NNW,5.8,-,0.00,,Overcast,340,2013-06-05 18:54:00
2:54 PM,66.9,59.0,76,29.96,10.0,North,6.9,-,0.00,,Overcast,350,2013-06-05 19:54:00
3:40 PM,69.1,57.9,68,29.95,10.0,North,12.7,19.6,N/A,,Overcast,10,2013-06-05 20:40:00
3:54 PM,71.1,59.0,66,29.94,10.0,North,10.4,-,N/A,,Mostly Cloudy,10,2013-06-05 20:54:00
4:54 PM,69.1,57.9,68,29.93,10.0,NNW,4.6,-,N/A,,Overcast,340,2013-06-05 21:54:00
5:54 PM,69.1,57.0,65,29.92,10.0,NNW,9.2,-,N/A,,Overcast,330,2013-06-05 22:54:00
6:54 PM,70.0,55.0,59,29.92,10.0,WNW,8.1,-,N/A,,Partly Cloudy,300,2013-06-05 23:54:00
7:54 PM,69.1,53.1,57,29.93,10.0,NW,5.8,-,N/A,,Partly Cloudy,320,2013-06-06 00:54:00
8:54 PM,66.9,53.1,61,29.94,10.0,North,8.1,-,N/A,,Scattered Clouds,350,2013-06-06 01:54:00
9:54 PM,64.0,51.1,63,29.96,10.0,NNW,5.8,-,N/A,,Mostly Cloudy,340,2013-06-06 02:54:00
10:54 PM,64.0,51.1,63,29.96,10.0,NNW,4.6,-,N/A,,Mostly Cloudy,340,2013-06-06 03:54:00
11:54 PM,61.0,52.0,72,29.96,10.0,WNW,3.5,-,N/A,,Mostly Cloudy,290,2013-06-06 04:54:00